Regional Weather Roundup
Issued by NWS Upton, NY

Current Version | Previous Version | Text Only | Print | Product List | Glossary On
Versions: 1 2 3 4 5 6 7 8 9 10 11 12 13 14 15 16 17 18 19 20 21 22 23 24 25 26 27 28 29 30 31 32 33 34 35 36 37 38 39 40 41 42 43 44 45 46 47 48 49 50
000 ASUS41 KOKX 012005 RWROKX REGIONAL WEATHER ROUNDUP NATIONAL WEATHER SERVICE NEW YORK NY 400 PM EDT WED OCT 01 2014 NOTE: "FAIR" INDICATES FEW OR NO CLOUDS BELOW 12,000 FEET WITH NO SIGNIFICANT WEATHER AND/OR OBSTRUCTIONS TO VISIBILITY. NYZ071-072-176-178-NJZ106-104-012100- NEW YORK CITY METRO AREA CITY SKY/WX TMP DP RH WIND PRES REMARKS CENTRAL PARK CLOUDY 63 59 87 N7 30.06S FOG LAGUARDIA APRT CLOUDY 64 58 80 NE10 30.03S KENNEDY INTL CLOUDY 65 57 75 N15 30.03S NEWARK/LIBERTY CLOUDY 65 59 81 N13 30.03S BRNX BOT. GARD N/A 61 59 94 N7 30.05F TETERBORO LGT RAIN 64 58 80 NE7 30.02F HAZE $$ NYZ177-179-078>081-012100- LONG ISLAND NEW YORK CITY SKY/WX TMP DP RH WIND PRES REMARKS FARMINGDALE CLOUDY 63 60 90 NE9 30.02F FOG ISLIP LGT RAIN 62 59 90 NE10 30.00S FOG SHIRLEY CLOUDY 62 59 90 N8 30.02S WESTHAMPTON LGT RAIN 62 60 93 N13 30.02F FOG MONTAUK POINT N/A 61 58 90 N10G17 30.02S $$ NYZ052-065-067-012100- HUDSON VALLEY CITY SKY/WX TMP DP RH WIND PRES REMARKS WHITE PLAINS CLOUDY 63 59 87 NE7 30.03S NEWBURGH CLOUDY 63 59 88 NE9G17 30.06 MONTGOMERY CLOUDY 64 58 80 NE8 30.05S POUGHKEEPSIE PTSUNNY 65 60 84 N6 30.04F ALBANY CLOUDY 64 56 75 N5 30.08S $$ NJZ001-105-106-008-010-013-015-019>022-104-012100- NEW JERSEY CITY SKY/WX TMP DP RH WIND PRES REMARKS NEWARK/LIBERTY CLOUDY 65 59 81 N13 30.03S TETERBORO LGT RAIN 64 58 80 NE7 30.02F HAZE CALDWELL CLOUDY 63 56 78 VRB6 30.04S MORRISTOWN CLOUDY 66 59 77 NE5 30.04S SOMERVILLE CLOUDY 67 56 67 NE8 30.02S LINDEN CLOUDY 69 61 76 NE10 30.04F SUSSEX CLOUDY 67 58 72 NE9 30.05F ANDOVER N/A 64 58 80 N3 30.05S TRENTON CLOUDY 67 57 70 NE8 30.02S MILLVILLE CLOUDY 71 57 61 N10 30.00S ATLANTIC CITY CLOUDY 66 62 87 NE12 30.00S WRIGHTSTOWN CLOUDY 65 60 83 N8 30.00S TOMS RIVER PTSUNNY 63 59 88 N3 30.02S BELMAR CLOUDY 63 55 77 N7 30.02S $$ PAZ047>061-062-071-012100- EASTERN PENNSYLVANIA CITY SKY/WX TMP DP RH WIND PRES REMARKS PHILADELPHIA PTSUNNY 71 57 61 NE9 30.01S ALLENTOWN PTSUNNY 71 55 56 E13 30.02S SCRANTON PTSUNNY 72 52 49 NE12 30.02S $$ CTZ002-004>006-009-010-012-RIZ004-006-007-MAZ004-011-015-012100- SOUTHERN NEW ENGLAND IN CT CITY SKY/WX TMP DP RH WIND PRES REMARKS BRADLEY INTL DRIZZLE 61 57 87 N8 30.06R HARTFORD LGT RAIN 61 58 90 VRB7 30.05S DANBURY CLOUDY 62 57 83 NE9G17 30.06S WTRBRY/OXFORD DRIZZLE 59 54 82 NE12 30.06F FOG BRIDGEPORT CLOUDY 64 59 83 NE12 30.03S MERIDEN CLOUDY 62 58 86 N8 30.04F NEW HAVEN CLOUDY 65 60 84 N12 30.03S CHESTER HVY RAIN 57 57 100 N12 30.04S GROTON LGT RAIN 59 59 100 N12 30.01S WILLIMANTIC CLOUDY 60 56 86 N10 30.05R IN RI CITY SKY/WX TMP DP RH WIND PRES REMARKS PROVIDENCE LGT RAIN 59 56 89 N13 30.03F BLOCK ISLAND CLOUDY 61 55 82 NE17G23 29.99F WESTERLY LGT RAIN 60 58 92 N9 30.02R IN MA CITY SKY/WX TMP DP RH WIND PRES REMARKS BOSTON LGT RAIN 57 56 96 NE18 30.06S FOG WORCESTER CLOUDY 54 53 97 N12G23 30.07S WESTFIELD CLOUDY 60 57 89 N7 30.07S PROVINCETOWN CLOUDY 61 57 88 NE18G24 30.03F NANTUCKET LGT RAIN 61 60 97 NE18 29.97S $$ ANZ330-335-338-340-345-350-353-355-012100- COASTAL MARINE OBSERVATIONS STATION/POSITION TIME SKY/WX TEMP WIND PRES VSBY WAVE AIR SEA DIR/SP/G HT/PER (UTC) (F) (DEG/KT/KT) (MB) (MI) (FT/S) NY HARB ENTRANCE NOT AVBL 4S FIRE IS 2000 68 N/A 3/ 5 20S FIRE ISLAND 2000 63 67 30/ 17/ 19 1015.4 4/ 6 23SW MTP 2000 N/A 5/ 6 HUDSON CANYON 2000 64 70 360/ 21/ 23 1013.7 5/ 6 EXECUTION ROCKS 2000 63 68 10/ 8/ 12 N/A WESTERN LI SOUND 2000 63 20/ 6/ 14 N/A 1/ 4 CENTRAL LI SOUND 1900 61 68 40/ 16/ 19 N/A 2/ 3 EASTERN LI SOUND 1900 62 66 10/ 12/ 17 N/A ROBBINS REEF 2000 63 10/ 13/ 15 1015.5 $$ >>>>>>>>>>>>>>>>>>>>>>>>>>>> KEY <<<<<<<<<<<<<<<<<<<<<<<<<<< > < > SKY/WX - SKY CONDITION/PRESENT WEATHER < > TMP - TEMPERATURE IN FAHRENHEIT < > DP - DEWPOINT IN FAHRENHEIT < > RH - RELATIVE HUMIDITY IN PERCENT < > WIND - DIRECTION AND SPEED IN MPH < > PRES - MEAN SEA LEVEL PRESSURE IN INCHES OF HG < > WCI - WIND CHILL INDEX < > VSB - VISIBILITY IN MILES < > HX - HEAT INDEX < > TC - TEMPERATURE IN CELSIUS < > VRB - VARIABLE WIND DIRECTION < > < >>>>>>>>>>>>>>>>>>>>>>>>>>>> KEY <<<<<<<<<<<<<<<<<<<<<<<<<<<

USA.gov is the U.S. government's official web portal to all federal, state and local government web resources and services.